Location: Lombard
(41.8800°N, 88.0080°W)
Time: 04:48:01
(UTC-05:00)

QB50P2 - Visible Passes

Search period start: 16 May 2022 00:00
Search period end: 26 May 2022 00:00
Orbit: 590 x 607 km, 97.9° (Epoch: 15 May)

Date Brightness Start Highest point End Pass type
(mag) Time Alt. Az. Time Alt. Az. Time Alt. Az.
16 May ? 01:28:47 10° NE 01:31:22 23° ENE 01:31:22 23° ENE visible
16 May ? 03:04:22 10° N 03:07:54 27° WNW 03:08:06 26° WNW visible
17 May ? 01:39:12 10° NNE 01:42:12 30° ENE 01:42:12 30° ENE visible
17 May ? 03:15:19 10° NNW 03:18:27 21° WNW 03:18:56 21° WNW visible
18 May ? 01:49:41 10° NNE 01:53:02 40° ENE 01:53:02 40° ENE visible
18 May ? 03:26:21 10° NNW 03:29:00 17° WNW 03:29:45 16° WNW visible
19 May ? 02:00:13 10° NNE 02:03:51 53° ENE 02:03:51 53° ENE visible
19 May ? 03:37:35 10° NW 03:39:31 13° WNW 03:40:34 12° WNW visible
20 May ? 02:10:48 10° NNE 02:14:39 71° NE 02:14:39 71° NE visible
20 May ? 03:49:46 10° WNW 03:50:01 10° WNW 03:50:16 10° WNW visible
21 May ? 02:21:26 10° N 02:25:27 77° NW 02:25:27 77° NW visible
22 May ? 00:58:51 10° ENE 00:59:31 11° E 00:59:31 11° E visible
22 May ? 02:32:06 10° N 02:36:13 60° WNW 02:36:15 60° WNW visible
23 May ? 01:08:29 10° ENE 01:10:19 15° E 01:10:19 15° E visible
23 May ? 02:42:48 10° N 02:46:48 45° WNW 02:47:02 45° W visible
24 May ? 01:18:34 10° NE 01:21:05 19° E 01:21:05 19° E visible
24 May ? 02:53:34 10° N 02:57:22 35° WNW 02:57:48 34° W visible
25 May ? 01:28:49 10° NE 01:31:51 24° E 01:31:51 24° E visible
25 May ? 03:04:22 10° N 03:07:54 27° WNW 03:08:34 26° W visible
